Regional Weather Roundup
Issued by NWS

Home | Current Version | Previous Version | Text Only | Print | Product List | Glossary Off
Versions: 1 2 3 4 5 6 7 8 9 10 11 12 13 14 15 16 17 18 19 20 21 22 23 24 25 26 27 28

000
ASUS45 KTFX 281610
RWRMT
MONTANA REGIONAL WEATHER ROUNDUP
NATIONAL WEATHER SERVICE GREAT FALLS MT
1000 AM MDT SAT MAY 28 2016

NOTE: "FAIR" INDICATES FEW OR NO CLOUDS BELOW 12000 FEET WITH NO
SIGNIFICANT WEATHER AND/OR OBSTRUCTIONS TO VISIBILITY.

MTZ001>007-043-281700-
WEST OF THE DIVIDE

CITY           SKY/WX    TMP DP  RH WIND       PRES   REMARKS
KALISPELL      CLOUDY    51  39  63 S9        30.02S
MISSOULA       PTSUNNY   49  37  63 CALM      30.07S
BUTTE          CLOUDY    47  30  51 N7        30.05S
MULLAN PASS    PTSUNNY   37  29  72 VRB5      30.05R
ANACONDA         N/A     46  28  49 W6        30.04S
DEER LODGE       N/A     45  34  65 CALM      30.07S
EUREKA           N/A     54  34  47 SE7         N/A
HAMILTON         N/A     52  36  54 CALM      30.07R
LIBBY            N/A     52  39  62 CALM      30.03S
$$

MTZ008-052>055-281700-
SOUTHWEST MONTANA

CITY           SKY/WX    TMP DP  RH WIND       PRES   REMARKS
BOZEMAN        CLOUDY    50  39  66 NW7       30.03F
DILLON         CLOUDY    47  40  76 CALM      30.03R
W YELLOWSTONE  CLOUDY    39  28  65 CALM      30.08F
ENNIS          PTSUNNY   48  41  76 CALM      30.09S
$$

MTZ009-010-012-014-046-048-049-054-281700-
EAST SLOPES AND CENTRAL MONTANA

CITY           SKY/WX    TMP DP  RH WIND       PRES   REMARKS
CUT BANK       MOSUNNY   53  31  42 W15       29.94S
GREAT FALLS    MOSUNNY   54  30  40 W18G32    29.98S
MALMSTROM AFB  SUNNY     54  27  35 W18G28    29.98S
HELENA         SUNNY     55  30  38 W16       30.02S
CHOTEAU          N/A     54  28  37 W15       29.98S
$$

MTZ011-013-016-021-045-047-050-051-281700-
NORTH CENTRAL MONTANA

CITY           SKY/WX    TMP DP  RH WIND       PRES   REMARKS
HAVRE          SUNNY     56  39  53 SW14      29.93R
LEWISTOWN      MOSUNNY   55  39  54 NW9       29.98S
N BAR RANCH      N/A     52  34  50 NW13      29.99F
CHINOOK          N/A     57  37  47 W8        29.93R
$$

MTZ017>020-022>027-061-062-281700-
NORTHEAST MONTANA

CITY           SKY/WX    TMP DP  RH WIND       PRES   REMARKS
GLASGOW        LGT RAIN  53  51  93 NW10      29.90S
JORDAN           N/A     56  50  80 NW8       29.93R
SIDNEY         PTSUNNY   62  53  72 CALM      29.88S
WOLF POINT     CLOUDY    61  53  75 S6        29.89R
PLENTYWOOD       N/A     55  54  94 E10       29.91R
POPLAR           N/A     61  54  77 E3        29.89R
$$

MTZ028>42-056>058-281700-
SOUTHCENTRAL AND SOUTHEAST MONTANA

CITY           SKY/WX    TMP DP  RH WIND       PRES   REMARKS
BAKER          MOSUNNY   66  48  52 W9        29.90S
BILLINGS       PTSUNNY   55  42  61 SW5       29.99S
LIVINGSTON     CLOUDY    50  40  68 W9        30.01S
MILES CITY     CLOUDY    57  51  80 W10       29.93S
FORSYTH          N/A     55  48  76 W9        29.95S
$$

REGIONAL REPORTS...DAKOTAS

CITY           SKY/WX    TMP DP  RH WIND       PRES   REMARKS
WILLISTON      CLOUDY    61  52  72 E8        29.90R
MINOT          CLOUDY    61  53  75 N5        29.90S
DICKINSON      SUNNY     64  48  56 VRB6      29.87S
BEACH            N/A     66  48  52 CALM      29.91S
CROSBY         CLOUDY    52  52 100 E13       29.94S
WATFORD CITY   PTSUNNY   63  54  72 SE8       29.89S
BISMARCK       CLOUDY    66  56  70 NE7       29.88F
GRAND FORKS    PTSUNNY   71  55  56 NE8       29.83S
FARGO          CLOUDY    69  57  65 N10       29.81S
BUFFALO SD       N/A     68  47  46 NW5       29.83F
RAPID CITY     SUNNY     66  46  48 VRB5      29.91S
$$

REGIONAL REPORTS...WYOMING/IDAHO/WASHINGTON

CITY           SKY/WX    TMP DP  RH WIND       PRES   REMARKS
GILLETTE       SUNNY     58  45  62 VRB6      29.97R
SHERIDAN       CLOUDY    55  44  66 N7        30.00R
BUFFALO WY     CLOUDY    54  43  66 N14G25    30.01S
CODY           SUNNY     54  43  66 NE9       30.00F
YELLOWSTONE LA   N/A     44  25  47 VRB6      30.11S
IDAHO FALLS    SUNNY     52  32  46 SW17G26   30.06R
SALMON         CLOUDY    52  34  50 N6        30.03S
BOISE          SUNNY     53  32  44 W6        30.10R
SPOKANE        PTSUNNY   50  36  58 S10       30.06R
$$

REGIONAL REPORTS...ALBERTA

CITY           SKY/WX    TMP DP  RH WIND       PRES   REMARKS
EDMONTON       MOSUNNY   52  41  66 W8        29.86R
CALGARY        MOSUNNY   50  41  71 SW5       29.89F
LETHBRIDGE     MOSUNNY   57  32  38 W18       29.91R
MEDICINE HAT   PTSUNNY   55  46  71 SW7       29.88S
$$

REGIONAL REPORTS...SASKATCHEWAN

CITY           SKY/WX    TMP DP  RH WIND       PRES   REMARKS
SWIFT CURRENT  LGT RAIN  48  46  93 W15       29.88R
REGINA         CLOUDY    55  50  82 E13       29.94R
SASKATOON      CLOUDY    54  50  87 SE12G17   29.95R
$$




USA.gov is the U.S. government's official web portal to all federal, state and local government web resources and services.